CZ-6A DEB

基本信息
目录编号:
55212
目录名称:
CZ-6A DEB
国际标识:
2022-151WD
轨道中心:
EARTH
物体状态:
在轨
发射日期:
2022-11-11 UTC
轨道信息
数据来源: 国际轨道数据
星历时间: 2026-09-05T00:53:20+0800
半长轴: 6879.749km
偏心率: 0.0022547
轨道倾角: 98.636°
近地点辐角: 310.333°
升交点赤经: 344.746°
平近点角: 49.593°
近地点: 486.1km
远地点: 517.124km
周期: 94.650分钟
每日圈数: 15.214017
详细信息
发射场:
TSC
轨道高度:
LEO
数据来源:
AOE Integration Group
参考系:
TEME
时间系统:
UTC
历元类型:
SGP4
2D轨道图
3D轨道图
轨道高度分析图
轨道倾角分析图
轨道综合分析图
查看轨道综合分析图